Location: Caramacate
(10.0289°N, 66.7587°W)
Time: 21:19:03
(UTC+00:00)

Meteor PRIRODA - Pass Details

Date: 05 August 2024
Orbit: 428 x 443 km, 97.5° (Epoch: 07 September)

Event Time Altitude Azimuth Distance (km) Brightness Sun altitude
Exits shadow 23:40:08 18° 139° (SE) 1,157 5.0 -12.9°
Maximum altitude 23:42:13 39° 78° (ENE) 689 3.9 -13.4°
Drops below altitude 10° 23:45:24 10° 8° (N) 1,577 6.3 -14.1°
Sets 23:47:31 0° 0° (N) 2,452 7.4 -14.6°
